Location: Newark
(48.1333°N, 17.1000°E)
Time: 11:23:48
(UTC+00:00)

N. Korean satellite - Pass Details

Date: 29 January 2020
Orbit: 456 x 505 km, 97.2° (Epoch: 25 February)

Event Time Altitude Azimuth Distance (km) Brightness Sun altitude
Rises 03:59:31 0° 24° (NNE) 2,549 10.5 -24.1°
Reaches altitude 10° 04:01:52 10° 39° (NE) 1,673 9.7 -23.7°
Maximum altitude 04:04:51 24° 95° (E) 1,050 9.0 -23.2°
Drops below altitude 10° 04:07:50 10° 150° (SSE) 1,683 9.7 -22.7°
Sets 04:10:12 0° 165° (SSE) 2,568 10.5 -22.4°
